This is the latest recevied weather packets stored in our database for station/object SQ5LTL-2. If no packets are shown the sender has not sent any weather packets the latest 10 day(s).
| Time | Temp. | Humidity | Pressure | Rain* | Wind** | Luminosity | Snow |
|---|---|---|---|---|---|---|---|
| 1778052320 | 21.67° C | 41% | 1007 hPa | 0 mm | - | 371 W/m² | - |
| 1778052017 | 21.11° C | 42% | 1006.9 hPa | 0 mm | - | 340 W/m² | - |
| 1778051716 | 21.11° C | 42% | 1007 hPa | 0 mm | - | 348 W/m² | - |
| 1778051436 | 21.11° C | 42% | 1007 hPa | 0 mm | - | 344 W/m² | - |
| 1778051133 | 20.56° C | 43% | 1007 hPa | 0 mm | - | 340 W/m² | - |
| 1778050831 | 20.56° C | 42% | 1007 hPa | 0 mm | - | 326 W/m² | - |
| 1778050530 | 20° C | 44% | 1007 hPa | 0 mm | - | 321 W/m² | - |
| 1778050230 | 20° C | 43% | 1007 hPa | 0 mm | - | 264 W/m² | - |
| 1778049927 | 20° C | 44% | 1006.9 hPa | 0 mm | - | 346 W/m² | - |
| 1778049626 | 20° C | 44% | 1007 hPa | 0 mm | - | 238 W/m² | - |
| 1778049324 | 19.44° C | 44% | 1007 hPa | 0 mm | - | 269 W/m² | - |
| 1778049023 | 18.89° C | 46% | 1007.1 hPa | 0 mm | - | 242 W/m² | - |
| 1778048722 | 19.44° C | 46% | 1007 hPa | 0 mm | - | 171 W/m² | - |
| 1778048421 | 19.44° C | 45% | 1007 hPa | 0 mm | - | 212 W/m² | - |
| 1778048119 | 19.44° C | 45% | 1007.2 hPa | 0 mm | - | 229 W/m² | - |
| 1778047817 | 18.89° C | 46% | 1007.2 hPa | 0 mm | - | 260 W/m² | - |
| 1778047536 | 18.33° C | 45% | 1007.2 hPa | 0 mm | - | 215 W/m² | - |
| 1778047235 | 18.89° C | 44% | 1007.1 hPa | 0 mm | - | 232 W/m² | - |
| 1778046933 | 18.89° C | 45% | 1007.2 hPa | 0 mm | - | 304 W/m² | - |
| 1778046631 | 18.33° C | 45% | 1007.3 hPa | 0 mm | - | 278 W/m² | - |
| 1778046330 | 17.78° C | 46% | 1007.2 hPa | 0 mm | - | 230 W/m² | - |
| 1778046028 | 18.33° C | 46% | 1007.2 hPa | 0 mm | - | 187 W/m² | - |
| 1778045728 | 17.78° C | 46% | 1007.4 hPa | 0 mm | - | 153 W/m² | - |
| 1778045426 | 17.78° C | 48% | 1007.3 hPa | 0 mm | - | 138 W/m² | - |
| 1778045125 | 17.22° C | 48% | 1007.3 hPa | 0 mm | - | 128 W/m² | - |
* Rain latest hour (hover to see other rain measurements)
** Current wind speed in m/s (hover to see current wind gust speed)